Home   Weather   Oranjestad   Past weeks
Flag for Aruba

Past Weather in Oranjestad, Aruba — Yesterday and Last 2 Weeks

Now
79 °F

Passing clouds.


Feels Like: 82 °F
Forecast: 84 / 78 °F
Wind: 16 mph from East

Location: Queen Beatrix Airport - Aruba

Current Time: Jan 19, 2019 at 6:28:00 am

Latest Report: Jan 19, 2019 at 6:00 am


Visibility: N/A

Pressure: 29.92 "Hg

Humidity: 79%

Dew Point: 72 °F

Location of OranjestadLocation

Past Weather in Oranjestad — Graph

°F

Oranjestad Temperature Yesterday

Maximum temperature yesterday: 86 °F (at 3:00 pm)
Minimum temperature yesterday: 79 °F (at 12:00 am)
Average temperature yesterday: 81 °F

High & Low Weather Summary for the Past Weeks

 TemperatureHumidityPressure
High86 °F (Jan 5, 2:00 pm)89% (Jan 9, 8:00 am)30.04 "Hg (Jan 9, 8:00 am)
Low73 °F (Jan 11, 6:00 am)55% (Jan 9, 3:00 pm)29.86 "Hg (Jan 6, 5:00 pm)
Average80 °F74%29.95 "Hg
* Reported Jan 4 5:00 am — Jan 19 5:00 am, Oranjestad. Weather by CustomWeather, © 2019

Note: Actual official high and low records may vary slightly from our data, if they occured in-between our weather recording intervals... More about our weather records

Advertising

Oranjestad Weather History for the Previous 24 Hours

Scroll right to see more
 ConditionsComfort  
Time TempWeatherWind HumidityBarometerVisibility
5:00 am
Sat, Jan 19
79 °FPassing clouds.18 mph79%29.89 "HgN/A
4:00 am79 °FPassing clouds.16 mph79%29.89 "HgN/A
2:00 am79 °FPassing clouds.18 mph79%29.92 "HgN/A
1:00 am79 °FPassing clouds.18 mph79%29.95 "HgN/A
12:00 am79 °FPassing clouds.21 mph79%29.95 "HgN/A
11:00 pm
Fri, Jan 18
79 °FPassing clouds.18 mph84%29.95 "HgN/A
10:00 pm79 °FPassing clouds.21 mph79%29.92 "HgN/A
9:00 pm79 °FPassing clouds.20 mph84%29.92 "HgN/A
8:00 pm79 °FPassing clouds.21 mph79%29.89 "HgN/A
7:00 pm81 °FPassing clouds.21 mph74%29.89 "HgN/A
6:00 pm82 °FPassing clouds.23 mph74%29.89 "HgN/A
5:00 pm82 °FPassing clouds.23 mph70%29.89 "HgN/A
4:00 pm82 °FScattered clouds.24 mph70%29.89 "HgN/A
3:00 pm86 °FPassing clouds.23 mph62%29.92 "HgN/A
2:00 pm84 °FPassing clouds.23 mph66%29.92 "HgN/A
1:00 pm84 °FPassing clouds.23 mph66%29.98 "HgN/A
12:00 pm84 °FPassing clouds.21 mph66%29.98 "HgN/A
11:00 am84 °FScattered clouds.23 mph66%29.98 "HgN/A
10:00 am81 °FScattered clouds.24 mph74%29.98 "HgN/A
9:00 am81 °FPassing clouds.22 mph74%29.98 "HgN/A
8:00 am79 °FPassing clouds.18 mph79%29.95 "HgN/A
6:00 am79 °FScattered showers. Passing clouds.15 mph79%29.92 "HgN/A
Weather by CustomWeather, © 2019

See weather overview